Mobile, AL

8:26 PM CDT on May 25, 2017 (GMT -0500)
Mobile Regional

Weather History for KMOB - February, 2012

Change the Weather History Date:

Friday, February 17, 2012

  Actual Average Record
Temperature  
Mean Temperature 64 °F 54 °F  
Max Temperature 73 °F 65 °F 79 °F (1967)
Min Temperature 54 °F 44 °F 20 °F (1996)
Degree Days  
Heating Degree Days 1 11  
Month to date heating degree days 136 214  
Since 1 July heating degree days 1009 1335  
Cooling Degree Days 0 0  
Month to date cooling degree days 7 0  
Year to date cooling degree days 34 7  
Growing Degree Days 12 (Base 50)    
Moisture  
Dew Point 52 °F    
Average Humidity 69    
Maximum Humidity 84    
Minimum Humidity 53    
Precipitation  
Precipitation 0.00 in 0.17 in 2.94 in (1992)
Month to date precipitation 2.54 3.09  
Year to date precipitation 4.78 8.74  
Snow  
Snow 0.00 in 0.00 in - ()
Month to date snowfall 0.0 0.1  
Since 1 July snowfall 0.0 0.1  
Snow Depth 0.00 in    
Sea Level Pressure  
Sea Level Pressure 30.06 in    
Wind  
Wind Speed 5 mph (NE)    
Max Wind Speed 13 mph    
Max Gust Speed 17 mph    
Visibility 10 miles    
Events      
T = Trace of Precipitation, MM = Missing Value Source: NWS Daily Summary

Daily Weather History Graph

Daily Weather History Graph

Search for Another Location

Airport or City:

Trip Planner

Search our weather history database for the weather conditions in past years. The results will help you decide how hot, cold, wet, or windy it might be!

Date:

Astronomy

Feb. 17, 2012 Rise Set
Actual Time 6:32 AM CST 5:42 PM CST
Civil Twilight 6:07 AM CST 6:06 PM CST
Nautical Twilight 5:39 AM CST 6:34 PM CST
Astronomical Twilight 5:11 AM CST 7:03 PM CST
Moon 3:10 AM CST (2/17) 1:46 PM CST (2/17)
Length of Visible Light 11h 59m
Length of Day
11h 09m
Waning Crescent, 19% of the Moon is Illuminated
Feb 17
Waning Crescent
Feb 21
New
Feb 29
First Quarter
Mar 8
Full
Mar 14
Last Quarter

Hourly Weather History & Observations

Time (CST) Temp. Dew Point Humidity Pressure Visibility Wind Dir Wind Speed Gust Speed Precip Events Conditions
12:29 AM 59.0 °F 50.0 °F 72% 30.09 in 10.0 mi NNE 5.8 mph - N/A   Mostly Cloudy
12:56 AM 57.9 °F 50.0 °F 75% 30.08 in 10.0 mi NNE 8.1 mph - N/A   Scattered Clouds
1:56 AM 57.0 °F 50.0 °F 77% 30.04 in 10.0 mi North 6.9 mph - N/A   Scattered Clouds
2:56 AM 57.0 °F 48.9 °F 74% 30.06 in 9.0 mi North 6.9 mph - N/A   Mostly Cloudy
3:56 AM 57.2 °F 48.2 °F 72% 30.10 in 8.0 mi NNW 5.8 mph - N/A   Mostly Cloudy
4:56 AM 55.9 °F 48.9 °F 77% 30.08 in 9.0 mi North 8.1 mph - N/A   Scattered Clouds
5:56 AM 55.0 °F 48.0 °F 77% 30.09 in 10.0 mi NNE 10.4 mph - N/A   Mostly Cloudy
6:56 AM 54.0 °F 48.0 °F 80% 30.09 in 10.0 mi NNE 8.1 mph - N/A   Overcast
7:56 AM 55.0 °F 48.0 °F 77% 30.10 in 10.0 mi NNE 9.2 mph - N/A   Overcast
8:56 AM 57.0 °F 48.9 °F 74% 30.14 in 10.0 mi NNE 5.8 mph - N/A   Overcast
9:56 AM 59.0 °F 50.0 °F 72% 30.12 in 10.0 mi ENE 8.1 mph - N/A   Mostly Cloudy
10:07 AM 60.8 °F 50.0 °F 68% 30.12 in 10.0 mi ENE 8.1 mph - N/A   Mostly Cloudy
10:56 AM 66.0 °F 51.1 °F 59% 30.10 in 10.0 mi East 8.1 mph - N/A   Mostly Cloudy
11:56 AM 66.9 °F 51.1 °F 57% 30.09 in 10.0 mi SE 6.9 mph - N/A   Mostly Cloudy
1:56 PM 71.1 °F 54.0 °F 55% 30.04 in 10.0 mi East 3.5 mph - N/A   Overcast
2:01 PM 69.8 °F 53.6 °F 56% 30.04 in 10.0 mi Calm Calm - N/A   Overcast
2:11 PM 69.8 °F 53.6 °F 56% 30.03 in 10.0 mi Variable 3.5 mph - N/A   Mostly Cloudy
2:56 PM 71.1 °F 54.0 °F 55% 30.01 in 10.0 mi North 4.6 mph - N/A   Scattered Clouds
3:56 PM 71.1 °F 54.0 °F 55% 30.01 in 10.0 mi ESE 3.5 mph - N/A   Scattered Clouds
4:56 PM 69.1 °F 55.0 °F 61% 30.01 in 10.0 mi SE 3.5 mph - N/A   Scattered Clouds
5:56 PM 64.0 °F 55.0 °F 73% 30.02 in 10.0 mi SE 3.5 mph - N/A   Mostly Cloudy
6:56 PM 63.0 °F 55.9 °F 78% 30.02 in 10.0 mi Calm Calm - N/A   Scattered Clouds
7:56 PM 60.1 °F 55.0 °F 83% 30.04 in 10.0 mi Calm Calm - N/A   Mostly Cloudy
8:56 PM 63.0 °F 55.9 °F 78% 30.04 in 10.0 mi SE 3.5 mph - N/A   Overcast
9:56 PM 62.6 °F 57.2 °F 82% 30.05 in 10.0 mi Calm Calm - N/A   Overcast
10:56 PM 62.1 °F 57.0 °F 84% 30.05 in 10.0 mi South 3.5 mph - N/A   Overcast
11:56 PM 61.0 °F 57.0 °F 87% 30.02 in 10.0 mi Calm Calm - N/A   Overcast